Temp
15 15 15 15 14 13 13 13 12 11 10 9 9 8 7 6 4 3 2 2 2 2 2 3 3 4 4
15 14 14 13 12 12 11 10 10 9 8 7 5 4 4 4 3 2 2 1 1 1 1 2 2 3 3
14 14 12 11 8 8 7 7 7 8 6 4 4 3 3 3 2 2 1 1 1 1 0 1 1 2 3
13 12 9 8 7 6 5 5 5 5 5 5 4 3 2 2 2 1 1 0 0 -0 0 1 1 2 2
12 10 6 4 5 6 6 5 4 5 4 4 4 3 3 2 1 1 0 0 -0 -0 0 1 1 1 1
12 11 9 9 7 6 6 3 3 5 4 3 3 3 2 2 1 1 1 1 -0 -0 -0 1 0 0 0
12 12 11 10 7 6 5 5 3 3 3 1 2 2 2 1 1 1 1 0 -0 -1 -0 -0 -0 -0 -0
11 12 11 11 9 8 5 2 1 1 1 -0 1 1 1 1 1 1 1 1 -0 -1 -1 -1 -1 -1 -1
12 11 11 10 9 5 1 1 -1 -1 -1 0 0 1 1 1 0 -0 0 -1 -1 -1 -1 -1 -1 -1 -1
8 8 8 6 5 6 2 1 -1 -1 -1 -0 -1 -1 -2 -1 -0 -0 -0 -1 -1 -1 -0 -1 -1 -1 -2
4 3 2 1 1 1 1 2 -1 -1 -1 -0 -2 -3 -3 -3 -2 -1 -1 -1 -1 -1 -2 -1 -1 -1 -2
0 -0 -1 -1 -0 -0 0 0 1 2 -1 -1 -3 -3 -5 -6 -5 -3 -2 -2 -2 -2 -2 -2 -2 -1 -1
0 -0 -1 -1 -1 -2 -2 -2 -2 -2 -3 -2 -2 -4 -5 -6 -7 -6 -6 -4 -4 -4 -3 -2 -2 -2 -2
0 -1 -2 -3 -3 -3 -4 -4 -4 -5 -4 -3 -4 -4 -5 -5 -6 -7 -7 -6 -4 -3 -3 -3 -3 -2 -3
-2 -2 -3 -3 -4 -4 -4 -4 -3 -4 -5 -5 -5 -5 -5 -5 -6 -6 -6 -7 -5 -4 -4 -4 -4 -4 -3
-3 -3 -3 -3 -4 -4 -4 -4 -3 -4 -4 -4 -5 -6 -6 -4 -5 -6 -7 -6 -4 -4 -4 -5 -5 -4 -4
-3 -3 -3 -4 -4 -4 -4 -3 -3 -3 -3 -4 -5 -7 -12 -10 -5 -4 -5 -4 -5 -6 -5 -6 -5 -5 -5
Height
656 655 654 653 653 658 661 660 662 664 666 668 672 674 674 675 677 678 678 678 680 680 680 680 681 682 682
648 648 648 647 648 649 651 656 656 656 658 660 664 667 667 668 669 670 671 671 673 675 676 675 677 677 677
636 640 638 641 643 645 645 651 653 652 651 654 657 661 661 661 662 664 665 666 667 669 671 671 672 672 673
627 629 627 627 635 636 638 642 644 648 646 646 649 653 653 653 657 658 658 660 661 663 666 667 667 667 668
612 614 619 623 622 625 625 630 634 637 640 638 641 645 647 647 650 652 654 655 656 658 661 662 662 662 662
596 597 602 606 608 613 616 625 628 628 630 633 635 637 639 640 643 645 648 650 652 653 654 655 656 657 656
591 585 583 589 593 601 604 606 609 615 620 626 629 633 635 635 637 639 642 643 645 647 647 648 649 649 649
579 576 578 572 574 582 589 599 608 613 619 621 624 625 629 630 631 633 635 637 639 640 640 642 643 643 642
567 567 565 566 568 575 584 594 604 610 616 620 620 622 625 626 626 626 629 631 634 635 635 636 636 635 634
560 561 561 563 565 560 566 582 593 605 607 613 618 621 623 621 620 622 624 627 628 629 629 629 628 628 627
554 556 559 561 561 571 569 568 581 594 600 606 612 616 619 618 618 619 620 620 622 623 622 622 622 622 620
552 553 556 562 563 571 574 582 583 588 597 602 606 610 614 618 618 615 615 615 616 616 616 616 616 616 616
547 552 554 558 564 571 577 582 586 591 598 600 602 608 611 613 614 613 614 610 611 611 610 610 609 609 608
547 551 556 562 561 571 579 585 587 595 598 598 602 606 607 609 610 608 610 610 605 606 605 603 603 602 601
551 553 558 565 564 572 579 584 586 592 595 598 602 604 605 605 605 602 601 602 601 599 598 595 594 593 592
554 557 560 566 571 571 578 583 587 590 593 598 601 603 601 597 596 595 598 597 595 594 592 589 584 583 583
555 558 563 569 577 575 580 583 586 591 593 597 599 600 607 605 595 595 593 589 587 586 585 583 579 576 575
Wind_Speed
30 28 32 37 39 39 38 35 33 31 30 28 26 24 20 18 15 12 11 9 11 12 12 13 14 15 16
30 25 28 29 34 36 36 33 34 31 28 24 22 20 18 16 13 11 10 10 11 12 13 13 14 15 17
26 27 24 23 24 28 31 31 29 29 25 23 21 18 17 14 11 12 12 12 12 14 14 14 15 16 17
27 24 13 16 22 19 16 26 27 25 26 24 20 18 15 12 12 14 14 14 14 14 14 15 16 16 18
18 14 9 7 17 21 21 23 25 27 27 24 20 19 18 14 15 15 14 15 14 14 16 17 16 18 19
19 10 18 22 20 22 18 7 4 26 28 22 18 19 18 15 16 14 15 15 15 17 17 17 17 19 20
25 25 27 31 28 21 23 15 8 15 24 8 16 21 18 17 15 16 17 16 16 17 17 18 20 21 21
37 38 35 28 39 35 26 17 14 16 17 3 12 14 15 16 16 16 15 17 17 16 17 19 20 21 21
39 41 38 38 37 30 22 17 3 6 16 4 7 7 11 16 19 17 14 14 14 15 17 19 19 20 21
20 18 20 20 25 33 34 12 5 2 14 13 8 6 2 6 6 9 11 12 15 16 16 18 18 19 21
18 18 23 23 20 18 24 28 14 4 13 17 8 7 3 1 5 12 12 12 13 16 19 19 17 16 18
17 18 21 21 21 20 19 16 14 11 22 18 8 9 6 1 2 4 6 13 16 15 12 12 16 16 17
15 14 21 27 27 23 19 18 15 16 16 14 8 11 10 7 3 4 7 3 17 17 11 11 16 19 22
13 19 25 23 26 24 19 18 15 11 9 6 7 9 10 13 13 14 14 6 10 19 19 20 20 20 23
15 16 19 17 21 21 18 14 6 10 9 9 9 7 10 14 11 18 17 17 20 19 19 21 22 21 22
15 16 17 15 15 18 18 12 10 11 9 11 9 4 5 10 21 18 13 19 19 18 19 19 20 21 21
15 15 16 14 14 14 14 13 11 11 11 9 5 4 1 1 7 12 19 20 22 18 20 18 20 23 23
Wind_Direction
254 252 245 237 232 233 231 231 225 222 222 228 235 235 238 244 244 246 242 256 269 273 275 274 277 283 284
259 249 244 235 229 220 223 229 224 219 218 217 215 218 225 242 239 235 241 257 263 269 273 272 273 274 279
256 251 229 229 218 224 225 222 231 225 208 202 210 225 224 241 237 239 247 254 257 263 269 267 264 272 277
245 242 207 207 214 199 197 218 211 212 214 219 224 225 228 236 241 244 245 244 253 259 263 264 263 270 276
238 214 177 168 195 208 207 203 207 211 212 215 218 229 237 238 245 243 240 246 250 255 264 259 264 270 276
233 220 212 213 202 199 189 173 191 215 213 212 223 234 238 239 243 232 240 243 250 260 255 256 265 271 274
259 232 218 209 202 191 193 191 177 191 192 189 212 231 233 237 231 234 241 247 253 251 249 259 263 268 271
253 251 243 217 211 207 194 157 137 162 188 174 196 213 219 232 233 237 246 250 245 244 253 263 265 269 272
256 255 245 222 208 182 154 160 134 167 190 199 183 183 216 236 246 249 239 230 238 256 267 268 268 271 273
242 241 230 200 186 196 168 156 121 139 193 171 169 177 241 222 206 206 215 236 258 266 264 270 271 270 271
186 167 160 159 161 171 164 162 143 124 180 170 159 170 207 240 251 236 247 258 261 264 267 272 271 267 265
161 155 148 140 148 154 158 174 171 160 161 188 152 171 158 171 254 192 241 274 275 274 274 270 272 271 267
175 164 149 149 149 146 146 148 132 137 167 182 191 186 195 195 211 246 317 295 286 279 276 271 275 280 278
160 142 141 144 134 149 144 147 128 148 179 181 194 206 217 237 249 265 263 266 272 285 289 290 285 281 277
131 134 136 149 137 148 149 151 141 157 163 187 214 241 256 262 258 251 261 262 272 286 288 288 289 284 281
131 136 139 145 144 139 147 159 151 147 151 186 189 240 283 274 244 251 260 264 285 293 287 282 283 282 283
137 132 131 135 154 141 152 155 140 157 165 168 175 155 71 289 304 242 255 271 279 279 276 263 272 283 283